• In Czech Republic
  • List of Countries
  • For 7 days
  • Water Temperature
  • Satellite Maps
  • Weather Map
  • Weather Widgets
  • user-avatar
    Login

    Hourly Weather Chernomorec

    Today, 16 November, Friday

    Time Temperature Precipitation Wind Pressure Humidity
    00:00 +4°C° 0 mm 7 mps 766 mmHg 78%
    01:00 +4°C° 0 mm 7 mps 767 mmHg 79%
    02:00 +3°C° 0 mm 7 mps 766 mmHg 81%
    03:00 +3°C° 0 mm 7 mps 767 mmHg 81%
    04:00 +2°C° 0 mm 7 mps 767 mmHg 82%
    05:00 +2°C° 0 mm 7 mps 767 mmHg 83%
    06:00 +2°C° 0 mm 7 mps 767 mmHg 82%
    07:00 +2°C° 0 mm 7 mps 768 mmHg 82%
    08:00 +2°C° 0 mm 7 mps 768 mmHg 81%
    09:00 +3°C° 0 mm 7 mps 768 mmHg 77%
    10:00 +4°C° 0 mm 7 mps 768 mmHg 73%
    11:00 +4°C° 0 mm 8 mps 769 mmHg 70%
    12:00 +4°C° 0 mm 7 mps 769 mmHg 68%
    13:00 +4°C° 0 mm 7 mps 769 mmHg 67%
    14:00 +4°C° 0 mm 7 mps 769 mmHg 65%
    15:00 +4°C° 0 mm 7 mps 769 mmHg 66%
    16:00 +3°C° 0 mm 7 mps 770 mmHg 67%
    17:00 +2°C° 0 mm 6 mps 770 mmHg 68%
    18:00 +2°C° 0 mm 6 mps 770 mmHg 70%
    19:00 +1°C° 0 mm 6 mps 770 mmHg 72%
    20:00 +1°C° 0 mm 6 mps 771 mmHg 74%
    21:00 -1°C° 0 mm 6 mps 771 mmHg 75%
    22:00 0°C° 0 mm 5 mps 771 mmHg 77%
    23:00 0°C° 0 mm 5 mps 771 mmHg 79%

    Tomorrow, 17 November, Saturday

    Time Temperature Precipitation Wind Pressure Humidity
    00:00 0°C° 0 mm 5 mps 771 mmHg 80%
    01:00 0°C° 0 mm 5 mps 771 mmHg 81%
    02:00 0°C° 0 mm 4 mps 771 mmHg 82%
    03:00 0°C° 0 mm 5 mps 771 mmHg 82%
    04:00 0°C° 0 mm 5 mps 771 mmHg 82%
    05:00 0°C° 0 mm 5 mps 771 mmHg 83%
    06:00 0°C° 0 mm 5 mps 771 mmHg 83%
    07:00 0°C° 0 mm 4 mps 771 mmHg 83%
    08:00 0°C° 0 mm 4 mps 771 mmHg 83%
    09:00 +3°C° 0 mm 4 mps 771 mmHg 78%
    10:00 +4°C° 0 mm 4 mps 771 mmHg 73%
    11:00 +5°C° 0 mm 4 mps 771 mmHg 68%
    12:00 +5°C° 0 mm 4 mps 770 mmHg 67%
    13:00 +6°C° 0 mm 5 mps 770 mmHg 67%
    14:00 +6°C° 0 mm 5 mps 770 mmHg 66%
    15:00 +5°C° 0 mm 5 mps 770 mmHg 69%
    16:00 +5°C° 0 mm 5 mps 770 mmHg 73%
    17:00 +3°C° 0 mm 5 mps 770 mmHg 77%
    18:00 +3°C° 0 mm 5 mps 770 mmHg 78%
    19:00 +4°C° 0 mm 4 mps 770 mmHg 80%
    20:00 +4°C° 0 mm 4 mps 770 mmHg 82%
    21:00 +4°C° 0 mm 4 mps 770 mmHg 83%
    22:00 +4°C° 0 mm 3 mps 770 mmHg 84%
    23:00 +4°C° 0 mm 3 mps 769 mmHg 86%

    Day after tomorrow, 18 November, Sunday

    Time Temperature Precipitation Wind Pressure Humidity
    00:00 +4°C° 0 mm 3 mps 769 mmHg 87%
    01:00 +4°C° 0 mm 3 mps 769 mmHg 87%
    02:00 +4°C° 0 mm 3 mps 769 mmHg 88%
    03:00 +4°C° 0 mm 4 mps 769 mmHg 88%
    04:00 +4°C° 0 mm 4 mps 768 mmHg 88%
    05:00 +3°C° 0 mm 5 mps 768 mmHg 89%
    06:00 +3°C° 0.1 mm 5 mps 768 mmHg 88%
    07:00 +3°C° 0.1 mm 5 mps 768 mmHg 87%
    08:00 +5°C° 0.1 mm 5 mps 768 mmHg 87%
    09:00 +5°C° 0.1 mm 5 mps 768 mmHg 85%
    10:00 +4°C° 0.1 mm 6 mps 768 mmHg 83%
    11:00 +5°C° 0.1 mm 6 mps 768 mmHg 81%
    12:00 +5°C° 0.1 mm 6 mps 767 mmHg 81%
    13:00 +5°C° 0.1 mm 6 mps 767 mmHg 81%
    14:00 +5°C° 0.1 mm 6 mps 766 mmHg 80%
    15:00 +5°C° 0.2 mm 6 mps 766 mmHg 81%
    16:00 +7°C° 0.2 mm 6 mps 765 mmHg 82%
    17:00 +7°C° 0.2 mm 6 mps 765 mmHg 83%
    18:00 +7°C° 0.1 mm 6 mps 764 mmHg 83%
    19:00 +7°C° 0.1 mm 6 mps 764 mmHg 84%
    20:00 +6°C° 0.1 mm 7 mps 763 mmHg 84%
    21:00 +6°C° 0.4 mm 7 mps 763 mmHg 85%
    22:00 +6°C° 0.4 mm 7 mps 763 mmHg 86%
    23:00 +6°C° 0.4 mm 7 mps 762 mmHg 87%

    19 November, Monday

    Time Temperature Precipitation Wind Pressure Humidity
    00:00 +6°C° 1.1 mm 7 mps 762 mmHg 89%
    01:00 +6°C° 1.1 mm 7 mps 761 mmHg 90%
    02:00 +6°C° 1.1 mm 7 mps 761 mmHg 91%
    03:00 +6°C° 1 mm 7 mps 760 mmHg 91%
    04:00 +6°C° 1 mm 7 mps 760 mmHg 91%
    05:00 +7°C° 1 mm 6 mps 760 mmHg 92%
    06:00 +6°C° 0.5 mm 7 mps 759 mmHg 92%
    07:00 +8°C° 0.5 mm 7 mps 759 mmHg 91%
    08:00 +8°C° 0.5 mm 7 mps 759 mmHg 91%
    09:00 +8°C° 0.2 mm 7 mps 759 mmHg 90%
    10:00 +9°C° 0.2 mm 7 mps 759 mmHg 89%
    11:00 +9°C° 0.2 mm 6 mps 759 mmHg 88%
    12:00 +9°C° 0.1 mm 6 mps 759 mmHg 88%
    13:00 +10°C° 0.1 mm 6 mps 759 mmHg 87%
    14:00 +10°C° 0.1 mm 5 mps 758 mmHg 87%
    15:00 +10°C° 0.1 mm 5 mps 758 mmHg 90%
    16:00 +10°C° 0.1 mm 4 mps 758 mmHg 92%
    17:00 +10°C° 0.1 mm 3 mps 759 mmHg 94%
    18:00 +10°C° 0.1 mm 3 mps 759 mmHg 94%
    19:00 +10°C° 0.1 mm 3 mps 759 mmHg 95%
    20:00 +10°C° 0.1 mm 2 mps 759 mmHg 96%
    21:00 +10°C° 0.1 mm 2 mps 759 mmHg 96%
    22:00 +10°C° 0.1 mm 2 mps 760 mmHg 96%
    23:00 +10°C° 0.1 mm 2 mps 760 mmHg 96%

    20 November, Tuesday

    Time Temperature Precipitation Wind Pressure Humidity
    00:00 +11°C° 0 mm 1 mps 760 mmHg 96%
    01:00 +11°C° 0 mm 1 mps 760 mmHg 96%
    02:00 +11°C° 0 mm 1 mps 760 mmHg 96%
    03:00 +11°C° 0 mm 1 mps 760 mmHg 96%
    04:00 +11°C° 0 mm 1 mps 760 mmHg 96%
    05:00 +11°C° 0 mm 1 mps 760 mmHg 96%
    06:00 +10°C° 0 mm 2 mps 759 mmHg 96%
    07:00 +10°C° 0 mm 2 mps 759 mmHg 96%
    08:00 +12°C° 0 mm 2 mps 759 mmHg 97%
    09:00 +11°C° 0.2 mm 3 mps 759 mmHg 95%
    10:00 +12°C° 0.2 mm 3 mps 759 mmHg 94%
    11:00 +13°C° 0.2 mm 4 mps 759 mmHg 93%
    12:00 +14°C° 0.1 mm 4 mps 758 mmHg 90%
    13:00 +15°C° 0.1 mm 5 mps 758 mmHg 87%
    14:00 +16°C° 0.1 mm 5 mps 757 mmHg 83%
    15:00 +16°C° 0.2 mm 5 mps 757 mmHg 84%
    16:00 +16°C° 0.2 mm 5 mps 757 mmHg 84%
    17:00 +16°C° 0.2 mm 6 mps 756 mmHg 84%
    18:00 +16°C° 0.2 mm 6 mps 756 mmHg 85%
    19:00 +16°C° 0.2 mm 6 mps 756 mmHg 86%
    20:00 +16°C° 0.2 mm 7 mps 756 mmHg 86%
    21:00 +16°C° 0.3 mm 6 mps 756 mmHg 87%
    22:00 +16°C° 0.3 mm 6 mps 756 mmHg 88%
    23:00 +16°C° 0.3 mm 6 mps 756 mmHg 89%

    21 November, Wednesday

    Time Temperature Precipitation Wind Pressure Humidity
    00:00 +16°C° 0 mm 6 mps 755 mmHg 88%
    01:00 +16°C° 0 mm 6 mps 755 mmHg 87%
    02:00 +16°C° 0 mm 6 mps 754 mmHg 87%
    03:00 +16°C° 0 mm 7 mps 754 mmHg 85%
    04:00 +16°C° 0 mm 7 mps 754 mmHg 84%
    05:00 +17°C° 0 mm 8 mps 753 mmHg 83%
    06:00 +17°C° 0.1 mm 7 mps 753 mmHg 83%
    07:00 +16°C° 0.1 mm 7 mps 753 mmHg 83%
    08:00 +16°C° 0.1 mm 7 mps 753 mmHg 83%
    09:00 +17°C° 0.4 mm 8 mps 753 mmHg 78%
    10:00 +18°C° 0.4 mm 8 mps 753 mmHg 74%
    11:00 +20°C° 0.4 mm 8 mps 752 mmHg 69%
    12:00 +20°C° 0.1 mm 8 mps 752 mmHg 67%
    13:00 +21°C° 0.1 mm 8 mps 752 mmHg 64%
    14:00 +21°C° 0.1 mm 8 mps 751 mmHg 61%
    15:00 +20°C° 0 mm 7 mps 752 mmHg 63%
    16:00 +19°C° 0 mm 6 mps 752 mmHg 65%
    17:00 +17°C° 0 mm 5 mps 752 mmHg 68%
    18:00 +17°C° 0 mm 5 mps 753 mmHg 71%
    19:00 +16°C° 0 mm 5 mps 753 mmHg 75%
    20:00 +15°C° 0 mm 4 mps 753 mmHg 78%
    21:00 +15°C° 0 mm 4 mps 754 mmHg 81%
    22:00 +14°C° 0 mm 3 mps 755 mmHg 83%
    23:00 +14°C° 0 mm 3 mps 755 mmHg 85%
    Show more